Kenosha, WI

5:58 PM CDT on September 16, 2019 (GMT -0500)
Kenosha Regional

Weather History for KENW - August, 2019

Change the Weather History Date:

Sunday, August 18, 2019

  Actual Average Record
Temperature  
Mean Temperature 74 °F -  
Max Temperature 81 °F 77 °F 93 °F (1955)
Min Temperature 66 °F 60 °F 45 °F (1963)
Cooling Degree Days 8    
Growing Degree Days 24 (Base 50)    
Moisture  
Dew Point 68 °F    
Average Humidity 87    
Maximum Humidity 100    
Minimum Humidity 64    
Precipitation  
Precipitation 0.43 in - - ()
Sea Level Pressure  
Sea Level Pressure 29.83 in    
Wind  
Wind Speed 8 mph (SW)    
Max Wind Speed 29 mph    
Max Gust Speed 52 mph    
Visibility 8 miles    
Events Fog , Rain , Thunderstorm    
Averages and records for this station are not official NWS values.
T = Trace of Precipitation, MM = Missing Value Source: NWS Daily Summary

Daily Weather History Graph

Daily Weather History Graph

Search for Another Location

Airport or City:

Astronomy

Aug. 18, 2019 Rise Set
Actual Time 6:01 AM CDT 7:49 PM CDT
Civil Twilight 5:31 AM CDT 8:19 PM CDT
Nautical Twilight 4:54 AM CDT 8:55 PM CDT
Astronomical Twilight 4:14 AM CDT 9:35 PM CDT
Moon 9:40 PM CDT (8/18) 8:48 AM CDT (8/18)
Length of Visible Light 14h 47m
Length of Day
13h 47m
Waning Gibbous, 91% of the Moon is Illuminated
Aug 18
Waning Gibbous
Aug 23
Last Quarter
Aug 30
New
Sep 5
First Quarter
Sep 13
Full

Hourly Weather History & Observations

Time (CDT) Temp. Heat Index Dew Point Humidity Pressure Visibility Wind Dir Wind Speed Gust Speed Precip Events Conditions
12:53 AM 71.1 °F - 69.1 °F 93% 29.87 in 7.0 mi South 3.5 mph - N/A   Clear
1:53 AM 69.1 °F - 68.0 °F 96% 29.84 in 7.0 mi SSE 3.5 mph - N/A   Clear
2:38 AM 66.9 °F - 66.9 °F 100% 29.85 in 1.8 mi Calm Calm - N/A   Clear
2:51 AM 66.2 °F - 66.2 °F 100% 29.86 in 3.0 mi SSW 4.6 mph - N/A   Clear
2:53 AM 66.9 °F - 66.9 °F 100% 29.85 in 4.0 mi SSW 4.6 mph - N/A   Clear
3:53 AM 69.1 °F - 69.1 °F 100% 29.83 in 6.0 mi SSW 5.8 mph - N/A   Clear
4:53 AM 70.0 °F - 69.1 °F 97% 29.76 in 5.0 mi SSE 9.2 mph - 0.00 in   Clear
5:53 AM 71.1 °F - 70.0 °F 96% 29.77 in 7.0 mi South 10.4 mph - N/A   Clear
6:53 AM 72.0 °F - 70.0 °F 93% 29.76 in 10.0 mi South 11.5 mph - N/A   Clear
7:53 AM 73.0 °F - 71.1 °F 93% 29.77 in 10.0 mi South 11.5 mph 18.4 mph N/A   Clear
8:08 AM 73.0 °F - 71.1 °F 93% 29.77 in 10.0 mi South 11.5 mph - N/A Thunderstorm Scattered Clouds
8:12 AM 73.0 °F - 71.1 °F 93% 29.80 in 2.5 mi SW 28.8 mph 51.8 mph N/A Thunderstorm Mostly Cloudy
8:20 AM 70.0 °F - 68.0 °F 93% 29.87 in 0.5 mi WNW 20.7 mph 51.8 mph 0.29 in Fog , Rain , Thunderstorm Heavy Thunderstorms and Rain
8:34 AM 69.1 °F - 66.9 °F 93% 29.86 in 1.0 mi West 9.2 mph 21.9 mph 0.43 in Rain , Thunderstorm Heavy Thunderstorms and Rain
8:41 AM 69.1 °F - 66.9 °F 93% 29.85 in 3.0 mi WNW 6.9 mph - 0.43 in Rain , Thunderstorm Light Thunderstorms and Rain
8:53 AM 69.1 °F - 66.0 °F 90% 29.83 in 10.0 mi WNW 9.2 mph 18.4 mph 0.43 in Thunderstorm Mostly Cloudy
9:01 AM 69.1 °F - 66.0 °F 90% 29.84 in 10.0 mi West 9.2 mph - N/A   Partly Cloudy
9:53 AM 70.0 °F - 66.9 °F 90% 29.81 in 10.0 mi South 6.9 mph - N/A   Clear
10:53 AM 71.1 °F - 66.9 °F 87% 29.78 in 10.0 mi South 15.0 mph 25.3 mph N/A   Clear
11:53 AM 73.0 °F - 68.0 °F 84% 29.74 in 10.0 mi South 12.7 mph 27.6 mph N/A   Clear
12:51 PM 73.4 °F - 69.8 °F 88% 29.82 in 10.0 mi West 12.7 mph 24.2 mph N/A   Partly Cloudy
12:53 PM 75.0 °F - 69.1 °F 82% 29.81 in 10.0 mi West 10.4 mph 24.2 mph N/A   Partly Cloudy
1:53 PM 81.0 °F 84.1 °F 69.1 °F 67% 29.82 in 10.0 mi West 20.7 mph 31.1 mph N/A   Mostly Cloudy
2:53 PM 78.1 °F - 68.0 °F 71% 29.82 in 10.0 mi West 12.7 mph - N/A   Mostly Cloudy
3:00 PM 79.0 °F - 68.0 °F 69% 29.83 in 10.0 mi West 11.5 mph - N/A   Mostly Cloudy
3:53 PM 79.0 °F - 66.0 °F 64% 29.82 in 10.0 mi West 10.4 mph 17.3 mph N/A   Clear
4:53 PM 78.1 °F - 66.0 °F 66% 29.84 in 10.0 mi West 6.9 mph - N/A   Partly Cloudy
5:53 PM 79.0 °F - 66.9 °F 66% 29.84 in 10.0 mi West 9.2 mph - N/A   Partly Cloudy
6:53 PM 75.9 °F - 66.9 °F 74% 29.83 in 10.0 mi West 8.1 mph - N/A   Partly Cloudy
7:53 PM 72.0 °F - 66.9 °F 84% 29.85 in 10.0 mi WSW 5.8 mph - N/A   Clear
8:53 PM 68.0 °F - 66.0 °F 93% 29.88 in 10.0 mi West 4.6 mph - N/A   Clear
9:53 PM 68.0 °F - 64.9 °F 90% 29.90 in 10.0 mi WSW 4.6 mph - N/A   Clear
10:53 PM 66.9 °F - 64.9 °F 93% 29.91 in 10.0 mi West 4.6 mph - N/A   Clear
11:53 PM 66.0 °F - 64.0 °F 93% 29.92 in 10.0 mi WSW 4.6 mph - N/A   Clear